Weather History for Morristown, NJ

Change the Weather History Date:

Saturday, May 11, 2013

  Actual Average Record
Temperature  
Mean Temperature 66 °F -  
Max Temperature 71 °F 70 °F 93 °F (2001)
Min Temperature 62 °F 44 °F 27 °F (1947)
Cooling Degree Days 2    
Growing Degree Days 16 (Base 50)    
Moisture  
Dew Point 62 °F    
Average Humidity 87    
Maximum Humidity 94    
Minimum Humidity 68    
Precipitation  
Precipitation 0.21 in - - ()
Sea Level Pressure  
Sea Level Pressure 29.80 in    
Wind  
Wind Speed 5 mph (SW)    
Max Wind Speed 17 mph    
Max Gust Speed 32 mph    
Visibility 8 miles    
Events Rain , Thunderstorm    
Averages and records for this station are not official NWS values.
T = Trace of Precipitation, MM = Missing Value Source: NWS Daily Summary

Daily Weather History Graph

Daily Weather History Graph

Search for Another Location

Airport:

Trip Planner

Search our weather history database for the weather conditions in past years. The results will help you decide how hot, cold, wet, or windy it might be!

Date:

Astronomy

May. 11, 2013 Rise Set
Actual Time 5:44 AM EDT 8:04 PM EDT
Civil Twilight 5:13 AM EDT 8:35 PM EDT
Nautical Twilight 4:35 AM EDT 9:13 PM EDT
Astronomical Twilight 3:53 AM EDT 9:55 PM EDT
Moon 6:49 AM EDT (5/11) 9:42 PM EDT (5/11)
Length of Visible Light 15h 21m
Length of Day
14h 20m
Waxing Crescent, 3% of the Moon is Illuminated
May 11
Waxing Crescent
May 18
First Quarter
May 25
Full
May 31
Last Quarter
Jun 8
New

Hourly Weather History & Observations

Time (EDT) Temp. Dew Point Humidity Pressure Visibility Wind Dir Wind Speed Gust Speed Precip Events Conditions
12:15 AM 69.8 °F 59.0 °F 68% 29.91 in 10.0 mi West 11.5 mph 16.1 mph N/A   Mostly Cloudy
12:35 AM 68.0 °F 60.8 °F 78% 29.92 in 7.0 mi WSW 10.4 mph - N/A Rain , Thunderstorm Thunderstorms and Rain
12:55 AM 66.2 °F 60.8 °F 83% 29.90 in 7.0 mi West 3.5 mph - N/A Rain , Thunderstorm Light Thunderstorms and Rain
1:15 AM 66.2 °F 62.6 °F 88% 29.89 in 4.0 mi Calm Calm - 0.03 in Rain Heavy Rain
1:35 AM 66.2 °F 62.6 °F 88% 29.89 in 5.0 mi Calm Calm - 0.07 in Rain Rain
1:55 AM 64.4 °F 62.6 °F 94% 29.87 in 5.0 mi Calm Calm - 0.01 in Rain Rain
2:15 AM 64.4 °F 62.6 °F 94% 29.87 in 4.0 mi Calm Calm - 0.04 in Rain Rain
2:35 AM 64.4 °F 62.6 °F 94% 29.87 in 4.0 mi Calm Calm - 0.08 in Rain Rain
2:55 AM 64.4 °F 62.6 °F 94% 29.86 in 5.0 mi SSW 4.6 mph - 0.01 in Rain Rain
3:15 AM 64.4 °F 62.6 °F 94% 29.82 in 10.0 mi Calm Calm - 0.04 in   Mostly Cloudy
3:35 AM 64.4 °F 60.8 °F 88% 29.84 in 7.0 mi SSW 3.5 mph - 0.05 in   Mostly Cloudy
3:55 AM 64.4 °F 60.8 °F 88% 29.85 in 10.0 mi SSW 3.5 mph - N/A   Overcast
4:15 AM 64.4 °F 60.8 °F 88% 29.85 in 10.0 mi SSW 3.5 mph - N/A   Drizzle
4:35 AM 64.4 °F 60.8 °F 88% 29.84 in 10.0 mi Calm Calm - N/A   Light Drizzle
4:55 AM 64.4 °F 60.8 °F 88% 29.84 in 10.0 mi South 3.5 mph - N/A   Overcast
5:15 AM 64.4 °F 60.8 °F 88% 29.83 in 10.0 mi Calm Calm - N/A   Overcast
5:35 AM 64.4 °F 60.8 °F 88% 29.82 in 10.0 mi Calm Calm - N/A   Overcast
5:55 AM 64.4 °F 60.8 °F 88% 29.82 in 10.0 mi Calm Calm - N/A   Overcast
6:15 AM 64.4 °F 60.8 °F 88% 29.82 in 7.0 mi Calm Calm - 0.01 in   Drizzle
6:35 AM 64.4 °F 60.8 °F 88% 29.81 in 10.0 mi SSW 3.5 mph - 0.01 in   Light Drizzle
6:45 AM 62.6 °F 60.8 °F 94% 29.82 in 5.0 mi SSW 5.8 mph - N/A   Light Drizzle
7:45 AM 64.4 °F 60.8 °F 88% 29.83 in 5.0 mi SW 9.2 mph - N/A   Overcast
8:45 AM 66.2 °F 62.6 °F 88% 29.82 in 7.0 mi SW 10.4 mph - N/A   Overcast
9:45 AM 68.0 °F 62.6 °F 83% 29.81 in 10.0 mi SSW 9.2 mph 17.3 mph N/A   Overcast
10:45 AM 66.2 °F 62.6 °F 88% 29.80 in 10.0 mi South 9.2 mph 16.1 mph N/A   Overcast
11:45 AM 68.0 °F 62.6 °F 83% 29.80 in 10.0 mi SW 8.1 mph - N/A   Overcast
12:45 PM 69.8 °F 62.6 °F 78% 29.78 in 7.0 mi SW 9.2 mph 16.1 mph N/A   Overcast
1:45 PM 71.6 °F 62.6 °F 73% 29.74 in 10.0 mi SSW 9.2 mph - N/A   Overcast
2:45 PM 71.6 °F 62.6 °F 73% 29.72 in 10.0 mi SSW 9.2 mph - N/A   Overcast
3:20 PM 69.8 °F 62.6 °F 78% 29.72 in 0.8 mi West 3.5 mph - N/A Rain , Thunderstorm Heavy Thunderstorms and Rain
3:45 PM 62.6 °F 59.0 °F 88% 29.74 in 3.0 mi WSW 17.3 mph 32.2 mph N/A Rain Light Rain
4:45 PM 66.2 °F 62.6 °F 88% 29.74 in 10.0 mi West 6.9 mph - N/A   Mostly Cloudy
5:45 PM 68.0 °F 62.6 °F 83% 29.72 in 10.0 mi SSW 4.6 mph - N/A   Mostly Cloudy
6:45 PM 66.2 °F 62.6 °F 88% 29.72 in 10.0 mi South 4.6 mph - N/A   Mostly Cloudy
7:45 PM 64.4 °F 62.6 °F 94% 29.73 in 10.0 mi Calm Calm - N/A   Scattered Clouds
8:45 PM 64.4 °F 62.6 °F 94% 29.73 in 10.0 mi SW 4.6 mph - N/A   Mostly Cloudy
9:45 PM 64.4 °F 60.8 °F 88% 29.74 in 10.0 mi West 4.6 mph - N/A   Overcast
10:55 PM 64.4 °F 60.8 °F 88% 29.72 in 5.0 mi Calm Calm - N/A   Scattered Clouds
11:15 PM 62.6 °F 60.8 °F 94% 29.72 in 5.0 mi Calm Calm - N/A   Clear
11:35 PM 62.6 °F 60.8 °F 94% 29.72 in 7.0 mi Calm Calm - N/A   Clear
11:55 PM 62.6 °F 60.8 °F 94% 29.72 in 10.0 mi SSW 3.5 mph - N/A   Scattered Clouds